Date String (YYYY-MM-DD hh:mm:ss) UTC,Instrument flags,Ambient pressure (hPa),Sample flow (lpm),Bypass flow (lpm),Sample temperature (°C),Ambient temperature (°C),ASC tube jacket temperature (°C),LED temperature (°C),Box temperature (°C),Sample RH (%),Span deviation,Mass concentration (μg/m³),Mass concentration (μg/m³),Mass concentration (μg/m³)
DateTimeUTC,F1_M11,P_M11,Q1_M11,Q2_M11,T1_M11,T2_M11,T3_M11,T4_M11,T5_M11,U1_M11,ZSPAN_M11,X0_M11,X2_M11,X1_M11
2023-01-15 13:00:00,,0811.7,5.00,0.00,22.4,20.9,00.0,31.2,24.1,14.4,0000.0,0008.06,0003.64,0003.28
2023-01-15 13:01:00,,0811.7,5.01,0.00,22.3,20.9,00.0,31.2,24.1,14.1,0000.0,0007.98,0003.55,0003.10
2023-01-15 13:02:00,,0811.7,4.99,0.00,22.3,20.9,00.0,31.2,24.1,14.1,0000.0,0008.23,0003.49,0002.89
2023-01-15 13:03:00,,0811.7,5.00,0.00,22.3,20.8,00.0,31.2,24.1,14.1,0000.0,0008.79,0003.47,0002.72
2023-01-15 13:04:00,,0811.8,4.99,0.00,22.3,20.8,00.0,31.2,24.1,14.1,0000.0,0009.04,0003.42,0002.57
2023-01-15 13:05:00,,0811.8,5.00,0.00,22.3,20.8,00.0,31.2,24.0,14.2,0000.0,0009.05,0003.39,0002.50
2023-01-15 13:06:00,,0811.8,5.00,0.00,22.3,20.8,00.0,31.2,24.0,14.2,0000.0,0009.05,0003.38,0002.49
2023-01-15 13:07:00,,0811.8,4.99,0.00,22.3,20.8,00.0,31.2,24.1,14.3,0000.0,0009.52,0003.41,0002.48
2023-01-15 13:08:00,,0811.9,5.01,0.00,22.3,20.8,00.0,31.2,24.0,14.2,0000.0,0010.01,0003.40,0002.45
2023-01-15 13:09:00,,0811.9,5.00,0.00,22.3,20.8,00.0,31.2,24.0,14.2,0000.0,0009.98,0003.39,0002.41
2023-01-15 13:10:00,,0811.8,4.99,0.00,22.3,20.8,00.0,31.2,24.1,14.3,0000.0,0009.64,0003.32,0002.33
2023-01-15 13:11:00,,0811.8,4.99,0.00,22.3,20.8,00.0,31.2,24.1,14.4,0000.0,0008.57,0003.24,0002.29
2023-01-15 13:12:00,,0811.8,5.01,0.00,22.3,20.8,00.0,31.2,24.1,14.2,0000.0,0008.15,0003.20,0002.32
2023-01-15 13:13:00,,0811.7,5.00,0.00,22.3,20.8,00.0,31.2,24.1,14.0,0000.0,0007.88,0003.17,0002.37
2023-01-15 13:14:00,,0811.7,4.99,0.00,22.3,20.8,00.0,31.2,24.1,14.0,0000.0,0007.39,0003.07,0002.40
2023-01-15 13:15:00,,0811.7,5.00,0.00,22.3,20.8,00.0,31.2,24.1,14.0,0000.0,0006.71,0003.03,0002.45
2023-01-15 13:16:00,,0811.7,5.01,0.00,22.3,20.8,00.0,31.2,24.0,14.0,0000.0,0007.04,0002.99,0002.45
2023-01-15 13:17:00,,0811.7,5.00,0.00,22.3,20.8,00.0,31.2,24.1,13.9,0000.0,0007.48,0002.96,0002.47
2023-01-15 13:18:00,,0811.7,5.00,0.00,22.3,20.8,00.0,31.2,24.1,13.9,0000.0,0007.17,0002.94,0002.48
2023-01-15 13:19:00,,0811.7,5.00,0.00,22.3,20.9,00.0,31.1,24.0,14.2,0000.0,0006.26,0002.99,0002.51
2023-01-15 13:20:00,,0811.7,4.99,0.00,22.3,20.9,00.0,31.1,24.0,14.1,0000.0,0006.28,0003.03,0002.58
2023-01-15 13:21:00,,0811.7,5.00,0.00,22.2,20.9,00.0,31.1,24.0,13.9,0000.0,0006.29,0003.08,0002.65
2023-01-15 13:22:00,,0811.6,5.00,0.00,22.2,20.8,00.0,31.1,24.0,13.9,0000.0,0006.31,0003.09,0002.66
2023-01-15 13:23:00,,0811.7,5.00,0.00,22.2,20.8,00.0,31.1,24.0,13.8,0000.0,0006.17,0003.11,0002.70
2023-01-15 13:24:00,,0811.6,5.00,0.00,22.2,20.9,00.0,31.1,24.0,13.8,0000.0,0006.37,0003.14,0002.75
2023-01-15 13:25:00,,0811.6,4.99,0.00,22.2,20.9,00.0,31.1,24.0,13.8,0000.0,0006.38,0003.15,0002.80
2023-01-15 13:26:00,,0811.6,5.00,0.00,22.2,20.9,00.0,31.1,24.0,13.8,0000.0,0006.28,0003.18,0002.85
2023-01-15 13:27:00,,0811.6,4.99,0.00,22.2,20.9,00.0,31.1,24.0,14.0,0000.0,0006.71,0003.20,0002.91
2023-01-15 13:28:00,,0811.6,5.00,0.00,22.2,20.9,00.0,31.1,24.0,14.0,0000.0,0007.24,0003.24,0002.93
2023-01-15 13:29:00,,0811.5,5.00,0.00,22.2,20.9,00.0,31.1,24.0,13.8,0000.0,0007.50,0003.28,0002.98
2023-01-15 13:30:00,,0811.5,5.00,0.00,22.2,20.9,00.0,31.1,24.0,13.8,0000.0,0007.46,0003.29,0003.04
2023-01-15 13:31:00,,0811.6,4.99,0.00,22.2,20.9,00.0,31.1,24.0,13.8,0000.0,0008.00,0003.31,0003.05
2023-01-15 13:32:00,,0811.5,4.99,0.00,22.2,20.9,00.0,31.1,24.0,13.9,0000.0,0008.34,0003.32,0003.02
2023-01-15 13:33:00,,0811.6,5.01,0.00,22.2,20.9,00.0,31.1,24.0,14.0,0000.0,0008.47,0003.35,0003.00
2023-01-15 13:34:00,,0811.6,5.00,0.00,22.2,20.9,00.0,31.1,24.0,14.0,0000.0,0008.54,0003.36,0002.98
2023-01-15 13:35:00,,0811.5,5.00,0.00,22.2,20.9,00.0,31.1,24.0,14.0,0000.0,0008.59,0003.38,0002.94
2023-01-15 13:36:00,,0811.5,5.00,0.00,22.2,20.9,00.0,31.1,24.0,14.1,0000.0,0008.59,0003.40,0002.93
2023-01-15 13:37:00,,0811.5,5.01,0.00,22.2,20.9,00.0,31.1,24.0,14.1,0000.0,0008.79,0003.46,0002.92
2023-01-15 13:38:00,,0811.5,5.00,0.00,22.2,20.9,00.0,31.1,23.9,14.1,0000.0,0008.41,0003.48,0002.94
2023-01-15 13:39:00,,0811.5,5.00,0.00,22.2,20.9,00.0,31.1,23.9,14.1,0000.0,0007.73,0003.51,0002.99
2023-01-15 13:40:00,,0811.5,4.99,0.00,22.2,20.9,00.0,31.1,23.9,14.0,0000.0,0007.48,0003.49,0002.96
2023-01-15 13:41:00,,0811.5,4.99,0.00,22.2,20.8,00.0,31.1,23.9,14.0,0000.0,0007.64,0003.52,0002.92
2023-01-15 13:42:00,,0811.4,5.00,0.00,22.2,20.8,00.0,31.1,23.9,13.9,0000.0,0007.31,0003.50,0002.85
2023-01-15 13:43:00,,0811.4,4.99,0.00,22.2,20.7,00.0,31.1,23.9,14.0,0000.0,0007.23,0003.52,0002.83
2023-01-15 13:44:00,,0811.3,5.00,0.00,22.2,20.7,00.0,31.1,23.9,14.0,0000.0,0007.02,0003.48,0002.81
2023-01-15 13:45:00,,0811.3,5.01,0.00,22.2,20.7,00.0,31.1,23.9,13.9,0000.0,0007.21,0003.44,0002.76
2023-01-15 13:46:00,,0811.2,4.99,0.00,22.2,21.0,00.0,31.0,24.0,13.9,0000.0,0007.60,0003.39,0002.73
2023-01-15 13:47:00,,0811.3,5.02,0.00,22.3,21.8,00.0,31.0,24.2,13.8,0000.0,0007.20,0003.35,0002.73
2023-01-15 13:48:00,,0811.3,5.00,0.00,22.4,22.6,00.0,31.1,24.4,13.8,0000.0,0006.84,0003.30,0002.73
2023-01-15 13:49:00,,0811.3,4.99,0.00,22.4,22.5,00.0,31.1,24.5,13.8,0000.0,0007.52,0003.32,0002.72
2023-01-15 13:50:00,,0811.3,4.98,0.00,22.5,22.2,00.0,31.2,24.4,13.7,0000.0,0007.74,0003.30,0002.71
2023-01-15 13:51:00,,0811.3,5.01,0.00,22.5,21.9,00.0,31.2,24.4,13.8,0000.0,0007.89,0003.33,0002.72
2023-01-15 13:52:00,,0811.2,5.00,0.00,22.5,21.7,00.0,31.2,24.3,13.9,0000.0,0008.63,0003.34,0002.75
2023-01-15 13:53:00,,0811.2,5.00,0.00,22.5,21.6,00.0,31.2,24.3,13.9,0000.0,0009.25,0003.37,0002.83
2023-01-15 13:54:00,,0811.1,4.98,0.00,22.5,21.5,00.0,31.2,24.3,13.8,0000.0,0009.89,0003.39,0002.90
2023-01-15 13:55:00,,0811.2,4.99,0.00,22.5,21.4,00.0,31.3,24.3,13.8,0000.0,0010.05,0003.45,0002.95
2023-01-15 13:56:00,,0811.1,5.00,0.00,22.5,21.4,00.0,31.3,24.3,13.7,0000.0,0009.99,0003.51,0003.02
2023-01-15 13:57:00,,0811.1,4.99,0.00,22.5,21.3,00.0,31.3,24.2,13.6,0000.0,0009.63,0003.55,0003.09
2023-01-15 13:58:00,,0811.0,4.99,0.00,22.5,21.3,00.0,31.3,24.2,13.6,0000.0,0009.79,0003.62,0003.12
2023-01-15 13:59:00,,0811.0,4.99,0.00,22.5,21.2,00.0,31.3,24.2,13.6,0000.0,0009.95,0003.65,0003.15
